Theta_e
318 319 317 319 318 319 319 319 318 318 318 316 315 317 315 315 315 315 313 314 310 312 313 316 318 318 317 315 315 320 320 317 319 318 317 315 313 316 321 323 325 325 327 328 327 327 328 330 328 327 328 327 325 326 326 325 323 323 323 322 322 322 321 320 320 320 319 320 320 320 320 320 319 319 319 319 319 319 319 319 318 317 318 317 317
319 318 318 319 319 318 317 317 318 318 316 316 315 315 315 313 312 311 313 312 313 317 315 317 317 315 313 313 315 319 318 316 320 319 316 312 310 313 318 319 324 324 325 325 325 325 326 328 327 326 327 327 326 325 325 325 323 322 322 322 321 321 321 320 320 320 320 319 319 319 319 319 318 318 318 318 318 318 318 318 317 316 317 317 316
320 320 319 320 319 319 318 318 318 318 317 318 315 315 315 315 316 314 314 314 316 316 317 319 316 315 314 314 317 318 317 318 318 316 313 311 311 311 312 317 320 324 324 324 325 325 326 327 327 327 327 326 325 325 325 325 324 322 321 321 321 321 320 320 320 320 318 318 318 318 318 318 318 318 317 317 317 317 316 316 315 316 316 315 315
321 321 321 320 319 318 319 317 318 317 317 318 316 315 315 315 315 315 315 317 317 317 317 316 316 315 313 315 318 319 318 319 317 315 313 311 310 309 311 312 316 319 322 324 324 324 325 325 326 325 325 326 326 325 324 324 323 322 321 320 321 321 320 320 319 319 318 318 318 318 317 317 317 316 316 315 315 315 315 315 315 315 314 315 314
321 321 320 321 320 319 319 319 319 319 317 318 317 316 313 315 316 313 314 313 314 317 313 313 312 316 314 315 317 319 318 318 316 314 313 311 310 309 308 307 308 314 316 318 323 326 324 324 324 324 324 325 326 325 325 324 323 322 321 320 321 321 321 319 318 317 318 318 318 317 316 316 316 315 315 315 315 314 314 314 314 314 314 314 313
320 321 321 321 320 319 320 319 319 318 318 318 317 316 316 315 317 314 317 316 316 317 314 316 314 313 313 314 315 318 317 317 315 316 315 313 310 308 307 305 305 306 306 313 316 323 324 323 322 323 323 323 324 324 324 324 322 322 321 320 320 320 319 318 317 316 317 317 317 316 315 315 315 315 315 314 314 314 314 314 313 314 313 313 313
320 321 320 320 320 319 319 320 319 319 318 318 319 318 318 318 316 316 316 313 314 316 312 315 314 315 315 312 315 311 312 316 316 316 315 313 310 308 306 304 303 304 305 304 309 314 321 321 321 321 322 322 322 323 323 323 322 322 321 320 319 319 318 318 317 316 317 316 316 315 315 314 314 314 314 313 313 314 313 314 314 313 313 313 313
320 320 320 320 321 320 321 320 320 319 320 319 319 319 318 318 317 317 315 315 313 315 313 314 313 313 313 312 313 312 313 314 315 315 315 313 311 308 306 303 303 304 305 304 305 309 314 319 318 318 319 320 322 322 322 323 322 322 321 320 318 319 318 317 316 316 316 315 314 314 313 313 313 313 312 313 313 313 313 313 313 313 313 313 312
321 320 320 321 321 321 322 321 320 320 319 319 319 319 318 318 317 316 317 316 313 314 313 311 312 313 314 312 313 313 313 316 316 315 313 312 310 309 306 303 302 306 304 303 303 303 308 311 312 312 313 315 318 319 320 321 321 321 321 320 319 318 317 315 315 315 314 314 313 313 312 313 312 312 312 312 312 312 312 312 313 313 312 312 312
322 321 322 322 322 322 322 322 321 320 319 319 319 319 318 318 318 315 316 316 314 313 313 311 311 311 309 310 311 310 313 315 314 311 313 311 310 308 306 304 302 303 303 303 301 302 302 306 308 308 308 310 312 315 316 318 319 320 320 319 319 318 316 315 314 314 313 313 312 312 312 312 311 311 311 312 312 311 312 312 312 312 312 312 312
322 321 321 322 322 322 321 321 320 320 319 319 318 318 318 317 317 317 313 316 316 314 313 312 311 309 309 311 309 310 312 311 312 313 313 313 310 308 305 303 302 301 303 301 301 301 298 296 295 295 300 305 306 308 311 313 315 317 318 318 318 317 316 315 314 313 312 312 312 311 311 311 311 311 311 311 311 311 312 312 311 311 311 311 311
323 323 322 322 322 322 322 321 320 320 319 318 318 318 318 316 315 316 314 312 311 312 308 310 308 309 308 311 307 308 310 311 312 313 312 310 307 304 304 303 301 300 300 300 301 299 298 296 295 294 296 302 302 302 305 308 310 314 316 317 317 316 315 314 313 312 311 311 311 311 310 310 311 310 310 310 310 311 311 311 311 311 311 311 311
323 323 322 321 322 323 322 321 320 319 319 319 320 319 319 319 317 315 315 313 312 310 310 311 310 310 307 307 309 305 309 309 311 311 310 307 304 302 301 301 300 299 300 300 300 299 298 297 295 293 293 293 297 300 300 302 307 310 313 314 315 315 314 314 313 312 310 310 310 310 309 310 310 309 310 309 310 311 311 310 311 311 310 311 311
322 323 323 322 322 322 322 323 321 320 320 320 319 317 318 317 316 312 312 314 313 311 311 313 307 306 305 304 304 306 307 308 309 310 308 304 302 301 300 301 300 300 300 300 299 299 298 297 295 292 289 290 290 290 292 292 298 306 309 311 313 314 314 313 312 311 310 309 309 309 309 309 309 309 310 310 310 311 310 310 310 310 310 311 310
323 321 322 322 322 322 323 323 322 321 319 319 319 318 318 318 316 317 313 308 311 310 313 315 309 303 301 304 301 303 306 308 309 311 306 302 300 300 299 300 300 300 299 299 299 299 299 297 295 292 289 289 290 291 292 294 297 302 304 305 308 312 313 312 311 310 309 309 309 309 308 308 308 309 309 309 309 310 309 310 310 310 310 310 310
323 322 322 322 322 322 322 322 323 321 321 320 319 319 319 318 317 317 317 313 309 312 312 314 311 309 306 306 300 298 300 305 308 310 304 302 300 299 299 300 299 297 298 299 299 298 299 297 295 292 289 289 289 290 290 289 295 298 299 299 304 308 311 311 311 310 309 309 308 308 308 308 308 308 309 309 309 310 309 309 309 309 309 309 309
324 324 322 322 322 321 321 322 322 322 321 321 321 321 320 320 319 317 317 317 313 309 310 312 312 315 309 303 300 299 300 299 305 307 302 300 298 298 298 298 298 297 297 297 297 298 298 297 294 292 290 289 289 289 288 287 288 292 292 296 303 304 306 310 309 309 308 308 308 308 307 307 307 308 308 308 308 308 308 308 308 307 308 308 308
324 324 323 321 322 321 321 321 321 322 322 322 322 321 320 319 319 319 317 317 316 310 309 308 312 313 312 310 307 303 300 298 304 302 302 302 298 298 298 298 297 297 296 296 296 297 297 297 295 293 291 289 289 288 287 288 290 288 290 295 303 304 304 305 308 308 307 307 307 307 307 306 307 307 307 307 307 307 307 307 307 307 307 307 308
323 324 324 323 323 323 322 321 321 321 321 321 322 321 321 320 320 318 319 317 315 313 313 314 311 313 312 312 308 302 301 304 302 297 299 302 300 299 299 296 295 295 295 295 295 296 296 296 295 293 291 289 288 289 289 291 292 293 299 302 303 303 304 303 303 305 306 306 306 306 306 306 306 306 306 306 307 306 306 306 306 306 306 307 307
325 324 325 324 323 323 323 322 322 322 321 321 321 322 321 320 319 320 320 319 318 317 316 314 315 314 313 313 311 307 303 300 299 303 298 297 298 299 296 294 294 293 294 294 294 295 296 295 295 292 289 288 288 286 287 286 285 286 292 301 302 303 303 302 302 302 302 304 305 305 305 305 306 306 305 305 305 305 305 306 306 306 306 306 306
325 325 325 326 323 323 324 323 323 322 320 322 322 322 322 322 320 319 320 319 319 319 318 316 317 316 312 313 315 314 310 309 305 301 297 295 295 294 295 292 292 292 293 293 294 295 296 296 295 291 289 288 287 287 287 286 286 286 295 298 300 302 303 302 302 301 301 301 302 303 304 304 304 304 305 304 304 305 305 305 305 305 305 305 304
323 324 325 326 326 324 325 326 325 325 321 323 323 323 323 323 323 322 322 321 320 319 319 319 317 318 316 316 313 312 311 309 306 303 301 301 298 294 294 292 291 292 293 293 293 293 295 296 295 291 289 288 287 287 286 287 286 287 292 295 297 298 301 301 301 301 300 300 300 300 301 302 303 303 303 303 303 304 304 304 304 305 304 304 304
322 323 323 325 326 324 325 326 327 326 324 324 324 324 324 324 324 323 322 322 321 320 318 318 318 317 316 315 314 314 312 311 310 306 307 298 296 295 296 293 294 293 293 293 292 292 294 296 295 291 289 288 287 287 287 286 289 290 294 294 295 296 298 300 300 300 300 300 300 300 300 300 301 301 301 302 302 303 304 303 303 303 303 303 303
322 322 323 323 323 325 323 326 326 327 327 327 327 326 326 325 325 324 323 322 323 320 320 319 318 317 317 316 314 314 313 313 311 309 307 305 302 299 297 294 292 291 291 292 291 292 293 296 296 293 290 288 287 287 287 288 288 291 289 293 293 295 297 299 300 299 299 299 299 299 299 299 299 299 300 300 301 302 303 303 302 302 302 302 302
324 324 324 322 322 323 324 325 326 327 328 328 328 327 327 326 325 324 323 322 322 321 320 320 319 318 318 317 316 313 313 313 312 310 308 306 303 299 296 293 292 291 291 292 290 290 292 296 296 292 289 288 288 287 287 288 287 290 289 292 292 293 294 296 298 298 298 298 298 298 298 298 298 298 299 299 299 300 301 301 301 301 301 301 301
323 323 325 323 322 323 323 324 325 325 325 327 328 327 326 326 325 324 323 324 323 322 321 320 320 319 319 317 315 314 314 313 312 310 308 304 300 301 297 292 291 290 291 290 289 291 290 293 294 292 289 288 287 286 286 286 287 291 289 286 289 291 293 295 297 297 297 297 297 297 297 297 298 297 297 298 298 298 299 300 300 300 300 300 300
320 321 320 322 322 322 323 324 324 325 326 326 326 327 326 325 324 324 323 324 323 322 321 321 319 318 317 317 315 315 314 311 311 310 309 308 307 303 299 295 289 287 288 288 288 291 290 290 293 291 289 288 286 285 286 285 287 290 288 284 284 291 292 294 295 296 296 296 296 296 297 296 296 297 296 296 296 297 297 298 299 299 299 298 298
319 318 319 320 320 321 321 322 323 323 325 325 326 325 324 324 323 323 323 323 323 321 321 320 320 319 317 317 316 316 316 314 312 311 309 309 308 303 302 301 296 289 287 287 286 288 289 290 289 290 289 287 286 285 287 287 286 291 287 282 282 284 292 292 293 294 294 294 295 295 296 296 296 296 295 295 295 295 295 296 296 296 295 295 295
318 317 318 318 319 320 320 320 321 321 322 323 324 324 323 321 320 321 321 321 319 320 320 319 318 317 316 316 317 316 312 310 310 310 309 307 307 304 304 303 300 297 288 285 287 287 287 290 289 290 288 286 285 285 286 285 287 287 282 282 282 282 290 291 292 292 292 293 294 294 295 295 295 295 294 294 294 294 294 295 295 295 294 294 295
317 317 317 317 317 314 320 320 320 321 321 322 322 322 321 321 322 322 322 321 320 319 318 319 318 318 317 315 314 312 309 309 310 310 308 308 306 303 302 302 301 300 294 289 289 287 286 288 288 290 286 285 285 285 285 284 288 286 282 282 283 285 291 291 291 290 291 291 292 293 294 294 294 294 294 293 293 294 294 294 294 294 294 294 294
312 313 314 315 316 317 318 319 319 321 322 322 321 321 319 318 317 318 318 318 318 318 317 317 319 315 312 312 310 310 306 307 306 305 304 305 306 303 300 299 297 299 297 291 289 285 288 288 287 286 288 285 285 285 284 284 287 285 282 282 283 289 288 288 290 289 289 290 291 292 292 293 292 293 293 292 293 293 293 293 293 293 292 292 293
310 312 312 314 314 314 314 317 318 319 320 320 320 321 320 319 318 311 310 312 312 312 312 307 309 309 306 304 303 305 303 301 302 301 299 299 301 300 299 297 295 294 293 289 288 286 285 287 287 285 286 285 284 284 283 283 286 286 281 282 285 286 283 283 288 289 288 289 290 290 291 291 291 291 291 291 292 292 292 292 292 291 291 291 291
308 309 311 313 315 315 316 315 317 317 317 318 317 316 316 315 314 313 311 308 310 311 310 308 305 306 307 307 306 304 300 299 295 295 296 298 296 297 296 294 294 292 292 288 286 283 283 282 283 284 284 284 282 282 283 282 282 282 284 282 283 283 283 283 282 287 287 288 288 289 289 289 289 289 290 290 290 290 290 290 290 289 289 290 290
300 308 310 312 310 313 314 315 315 315 315 318 317 315 313 311 309 310 310 309 309 308 302 304 303 304 304 305 302 299 296 299 297 296 296 296 294 293 291 292 292 290 289 290 287 286 284 282 282 282 283 283 284 281 283 282 282 282 281 282 282 283 283 282 282 283 287 286 287 288 288 288 288 288 288 288 289 289 289 289 288 287 288 288 289
298 301 303 304 308 308 308 308 310 309 310 307 306 307 308 309 310 309 307 308 308 308 306 306 306 304 302 302 303 298 296 298 297 297 296 294 292 292 291 290 291 291 289 288 286 284 283 282 281 282 282 282 282 282 282 284 283 283 282 281 281 282 282 282 282 282 286 286 287 287 286 286 287 287 287 288 288 287 287 287 287 287 287 287 289
303 301 302 304 303 304 304 304 303 304 304 303 304 304 308 308 309 310 308 307 307 307 307 307 305 302 302 301 300 297 295 296 296 296 294 293 292 292 292 289 289 289 289 287 286 286 283 283 281 282 282 282 280 281 283 283 282 282 281 281 281 281 281 281 281 281 284 286 286 285 285 285 286 286 286 287 286 286 286 286 286 286 286 287 288
301 300 300 299 302 303 304 304 305 303 303 304 304 302 302 302 303 305 306 305 304 305 305 305 300 301 301 301 301 296 294 295 294 292 291 290 289 290 289 289 288 289 287 286 284 281 282 282 281 280 279 279 279 280 282 281 280 280 280 280 280 280 280 281 281 282 283 284 284 283 283 284 284 285 285 286 285 285 285 285 285 285 285 286 287
298 297 298 296 299 300 300 300 300 301 300 300 301 301 301 300 300 300 300 301 301 302 301 300 300 300 301 301 299 296 295 295 295 293 290 290 289 289 290 288 287 286 286 284 282 280 282 282 282 280 279 280 279 279 281 282 281 279 279 280 280 280 280 280 280 281 281 280 278 279 281 282 282 283 284 284 284 284 284 283 283 284 285 286 287
297 296 294 295 293 296 296 296 297 298 299 298 298 298 298 297 298 298 297 296 296 295 295 296 295 295 295 295 294 293 294 294 295 293 291 289 289 288 288 287 286 285 283 282 281 280 280 280 279 279 279 279 279 280 280 281 281 280 280 279 279 279 279 279 278 279 279 279 281 282 281 281 282 281 282 283 283 282 282 282 282 283 284 285 287
295 295 296 296 293 293 294 295 295 295 295 295 295 295 295 296 295 295 294 295 294 293 293 293 293 293 293 292 292 292 292 292 292 291 290 290 289 288 287 285 285 284 282 280 280 279 278 278 279 279 278 278 278 277 279 279 279 279 280 280 278 277 278 279 278 276 276 277 276 275 279 279 279 280 281 281 281 281 281 280 280 281 283 285 286
291 291 291 292 292 293 292 292 293 293 294 295 295 295 295 295 295 295 295 293 292 292 292 291 291 291 291 291 291 291 290 289 289 290 290 290 289 288 285 285 284 283 281 280 279 278 277 278 277 278 278 278 278 278 278 279 279 280 278 278 277 277 277 276 276 277 276 274 274 275 276 277 276 276 276 275 276 278 277 278 279 280 283 285 286
289 289 290 290 291 292 292 291 291 292 292 294 292 292 294 294 294 294 293 291 291 291 291 291 290 289 290 289 289 288 288 288 288 288 289 289 289 290 288 285 284 282 280 279 278 278 278 277 278 278 277 278 279 279 279 280 279 278 277 277 276 276 275 275 274 275 275 275 274 274 276 278 275 274 274 272 275 277 276 275 275 279 282 284 285
289 289 289 290 289 289 290 290 290 290 290 292 291 294 294 295 294 293 293 291 291 290 290 291 291 289 288 288 288 287 286 286 287 287 289 289 288 288 288 287 286 284 281 279 279 278 278 278 278 278 278 278 279 281 281 280 278 278 278 278 277 275 274 273 273 273 274 275 273 272 275 277 276 274 275 275 275 275 275 274 279 282 283 284 285
288 287 288 288 288 289 289 289 289 289 289 289 293 293 294 294 293 293 291 291 290 290 289 290 289 288 288 287 285 286 286 287 286 286 287 288 288 288 287 286 286 287 286 282 280 278 277 277 277 278 278 279 280 280 280 280 279 279 279 278 277 276 275 274 274 272 273 276 272 271 273 275 274 275 275 276 275 275 275 277 280 282 283 284 284
287 288 288 288 288 288 289 289 289 288 288 290 292 293 293 294 294 292 289 290 290 288 288 288 288 287 286 286 285 285 285 285 284 283 283 284 286 287 287 287 287 287 288 287 287 281 280 279 278 278 279 280 280 280 281 281 281 278 278 277 277 276 276 275 275 274 275 275 271 269 271 275 275 275 274 276 276 275 275 277 279 281 282 283 283
288 288 288 288 288 288 289 289 289 289 289 289 292 292 292 293 293 292 289 289 289 288 288 287 286 286 286 286 286 284 282 282 283 283 283 283 283 283 283 282 282 284 287 287 287 286 283 280 279 279 280 280 281 281 282 283 280 279 277 277 276 275 275 275 276 276 276 276 273 270 270 273 275 274 273 275 276 275 275 276 279 281 281 282 282
288 288 288 287 288 288 288 287 288 288 288 289 291 292 292 293 293 292 287 287 286 286 286 286 286 286 286 286 285 284 282 283 284 284 284 283 282 281 280 280 281 280 281 281 282 281 281 281 280 280 280 282 282 281 281 282 281 280 280 278 277 277 276 275 275 276 275 276 274 274 270 271 272 272 273 274 274 274 274 276 278 279 280 280 280
286 287 287 287 287 287 287 287 287 287 286 289 290 291 292 292 293 288 286 286 285 285 285 285 285 285 285 285 284 283 283 283 284 285 285 283 281 280 280 277 275 276 278 281 284 284 281 280 281 280 280 281 283 281 281 281 281 279 277 276 276 274 273 272 272 272 271 274 275 274 271 269 271 271 272 274 273 272 274 273 277 277 279 279 279
286 287 286 286 286 286 286 286 286 286 286 287 289 290 291 292 291 286 286 286 285 284 284 284 284 284 283 283 283 282 282 282 284 286 286 284 281 280 280 277 274 274 277 279 283 286 285 285 284 284 284 285 285 285 285 284 281 279 276 275 273 273 272 271 272 270 271 273 274 275 272 270 271 270 270 272 271 271 272 273 273 276 277 277 278
286 286 286 286 286 286 286 286 286 286 286 286 288 290 290 291 288 285 284 283 281 280 280 281 281 281 281 283 283 282 282 282 284 286 287 284 282 281 279 279 277 276 277 276 278 281 285 285 284 284 284 285 285 285 285 285 283 280 277 276 275 273 272 272 272 272 271 272 273 275 271 270 269 270 267 269 269 270 271 272 273 273 275 275 276
286 286 286 286 285 285 285 285 285 286 286 285 287 289 290 291 289 286 285 284 283 282 279 281 282 282 282 283 284 283 283 283 285 286 287 285 282 281 280 279 278 277 277 276 278 278 280 280 280 281 281 283 283 282 283 284 283 281 279 277 274 274 273 272 272 269 269 272 273 275 271 270 269 270 267 266 267 269 269 269 272 270 270 270 271
Wind_Speed
6 6 5 6 5 5 5 5 5 5 4 4 4 5 5 5 5 5 4 5 3 3 3 3 3 3 3 4 3 3 4 3 3 4 3 2 2 1 4 5 5 5 4 2 2 2 3 6 8 9 10 11 10 11 11 11 12 12 13 12 13 13 13 13 14 14 15 15 15 15 16 16 16 17 17 18 18 19 19 19 20 20 20 21 21
7 6 7 6 6 5 5 5 5 5 5 5 5 5 5 4 4 4 4 4 4 6 3 4 4 3 4 3 3 4 3 3 4 5 4 3 2 1 4 5 5 5 4 1 2 4 6 8 9 10 10 10 10 10 11 11 11 12 12 12 12 12 13 13 13 14 14 14 15 15 15 15 16 16 17 18 18 19 19 19 20 20 20 21 21
7 7 6 6 6 6 6 5 5 6 5 6 5 5 5 5 5 5 6 5 6 4 4 4 4 4 3 2 4 2 2 4 5 5 4 4 3 2 3 6 5 4 3 2 3 5 9 10 9 10 10 10 10 10 10 11 11 12 12 12 12 12 12 13 13 13 14 14 14 14 15 15 16 17 17 17 18 18 19 19 19 20 20 21 22
7 7 7 7 6 6 6 6 6 5 6 6 6 5 5 5 4 4 5 4 4 3 3 3 4 4 3 4 3 4 3 4 5 5 5 4 3 3 3 4 5 5 2 0 4 6 9 9 10 9 9 9 10 10 10 11 11 11 11 11 12 12 12 12 13 13 13 14 14 14 14 15 16 16 17 17 18 18 19 18 19 20 20 21 22
7 8 7 7 7 6 6 6 6 6 5 5 5 4 3 5 5 3 3 3 2 4 2 2 3 5 3 4 2 4 4 4 5 6 6 5 4 4 4 4 3 5 4 5 5 6 9 9 9 8 8 9 9 9 10 10 10 10 10 11 11 12 12 12 12 13 13 14 14 14 15 15 15 16 16 17 17 17 18 18 18 19 20 21 22
7 7 6 6 6 6 6 6 6 5 5 5 6 6 6 5 6 3 5 4 5 5 3 4 4 4 4 4 3 4 4 4 5 6 7 6 5 4 5 4 3 3 2 5 7 3 10 10 9 9 8 9 9 9 9 10 10 10 10 10 11 11 11 12 13 13 14 14 14 14 15 15 15 15 15 15 16 17 17 18 19 19 20 21 22
6 7 6 6 6 6 6 7 6 5 6 6 6 6 6 6 5 5 4 4 4 4 3 4 5 6 5 3 5 3 3 6 4 6 6 6 5 4 4 5 4 3 3 3 5 6 9 9 9 9 9 9 9 9 9 9 9 9 10 10 10 11 11 12 13 13 13 13 13 14 14 14 14 14 15 16 16 17 17 17 18 19 20 21 21
6 5 6 6 6 7 7 6 6 6 6 6 5 6 6 6 5 5 5 5 4 5 4 5 5 6 5 4 5 4 5 4 5 5 5 6 6 5 4 5 4 4 3 4 4 7 10 8 10 9 9 9 9 9 9 9 9 9 9 9 10 11 11 12 13 13 13 13 13 13 13 13 13 14 15 15 15 16 16 17 18 19 20 20 21
6 5 6 7 6 7 7 7 6 6 6 6 6 6 6 6 6 6 5 6 5 6 5 5 5 6 6 4 5 5 5 6 6 5 5 6 6 5 4 4 4 5 4 5 5 5 8 9 9 9 9 10 10 10 9 9 9 9 8 9 9 10 11 12 12 12 12 12 12 12 12 12 13 13 14 15 15 16 16 17 18 19 20 20 21
7 6 6 6 7 7 7 7 6 6 6 6 7 6 6 6 7 6 6 5 5 6 6 5 5 5 4 4 5 3 5 5 5 5 6 6 6 6 6 5 5 5 5 5 4 6 4 7 8 8 9 10 11 10 10 10 9 8 8 8 9 9 10 11 11 11 11 11 11 11 11 11 12 13 14 14 15 16 17 17 18 19 19 20 21
8 7 7 7 7 7 7 7 6 7 7 7 7 7 7 6 7 6 4 6 6 7 7 6 4 3 3 4 2 3 3 3 5 5 5 7 7 6 5 5 5 4 5 5 5 4 4 3 4 4 5 11 11 11 11 10 10 9 8 8 8 9 9 10 11 10 10 10 10 10 11 11 11 12 13 14 15 16 16 17 18 19 20 20 21
9 8 8 8 7 7 8 7 7 7 7 8 8 8 9 8 7 6 5 4 4 4 3 4 1 2 3 4 2 3 2 3 4 6 6 5 5 5 6 5 5 5 5 5 5 4 4 3 4 4 4 6 10 10 11 11 10 10 9 8 8 8 9 9 10 9 9 9 9 9 10 10 11 12 13 14 15 15 16 17 18 19 20 21 21
9 9 9 9 8 7 8 7 7 7 8 9 10 9 9 8 7 6 7 6 6 4 3 4 4 2 3 3 5 3 3 3 4 3 5 5 4 6 5 6 5 6 5 5 4 4 4 4 4 4 5 3 5 8 11 11 11 10 10 8 7 7 7 8 9 9 8 8 8 9 9 10 11 12 13 14 15 15 16 17 18 20 20 21 21
9 9 9 9 9 8 8 9 8 8 8 8 7 7 7 6 5 4 4 7 6 5 5 5 1 4 3 3 2 2 1 2 3 3 2 3 5 5 5 6 6 6 4 5 4 4 4 4 4 4 3 3 3 3 5 6 7 10 10 9 7 6 6 7 8 8 7 8 8 9 9 10 11 12 13 14 15 16 17 18 19 20 20 21 21
9 9 9 9 10 9 9 8 8 8 7 8 7 8 8 9 8 8 5 3 4 3 5 7 5 1 1 1 3 1 2 1 1 1 1 2 3 5 5 5 7 6 6 5 5 4 4 3 4 4 3 3 3 3 4 5 6 10 10 9 8 7 6 6 7 7 7 7 8 9 9 10 11 12 13 14 15 16 17 18 19 19 20 21 21
10 10 9 9 9 10 8 7 8 7 9 9 9 10 8 8 8 8 6 5 3 5 5 6 5 5 2 4 2 1 3 5 3 1 2 2 3 5 4 5 5 4 5 6 5 5 4 3 4 4 3 3 3 3 4 4 6 8 8 7 7 7 6 6 6 7 8 7 8 8 9 10 11 13 14 15 15 16 17 18 19 19 20 21 22
10 11 10 10 9 9 8 9 9 8 8 9 10 10 9 9 9 8 8 8 6 4 4 5 5 6 6 2 2 1 4 2 2 4 1 2 3 2 4 4 5 6 6 4 4 5 5 4 3 3 3 3 3 3 4 4 4 3 4 5 4 6 7 6 6 7 7 8 8 8 9 10 12 13 14 15 15 16 17 18 19 19 20 21 21
9 10 10 9 10 10 9 9 9 9 9 9 9 7 8 8 8 9 9 8 7 4 4 3 5 6 5 4 6 4 2 2 2 4 2 0 1 1 2 3 4 5 4 4 5 4 5 6 4 4 3 3 3 3 3 4 3 3 3 2 4 4 5 6 6 7 7 7 8 8 9 10 12 13 14 15 16 16 17 17 18 19 20 20 21
9 9 9 10 10 10 10 10 10 9 8 8 9 9 8 7 6 7 9 8 5 6 7 6 3 5 5 5 2 1 4 5 5 2 1 1 0 1 2 1 2 4 4 4 5 5 4 5 5 5 4 3 3 3 3 4 4 4 5 3 3 3 4 5 6 7 8 8 8 9 9 11 12 13 13 14 15 16 16 17 18 19 19 20 21
9 9 10 10 10 10 10 9 9 9 8 8 9 8 6 5 7 8 7 7 9 10 8 6 9 6 6 7 6 3 2 2 4 6 4 3 3 0 0 1 1 3 3 4 5 6 5 4 5 4 5 4 3 3 3 4 3 2 3 3 2 3 4 5 6 7 8 9 9 9 10 11 12 13 14 14 15 15 16 17 17 18 20 20 21
9 9 9 9 9 10 9 9 9 9 7 8 7 7 9 8 8 7 8 8 8 9 8 9 8 8 5 6 7 8 5 5 3 3 3 3 3 5 3 1 1 3 4 4 5 5 6 6 5 5 5 5 4 4 4 4 3 1 2 2 2 3 3 5 5 6 7 8 9 9 10 11 12 12 13 14 14 15 15 16 17 18 19 20 21
8 8 8 8 8 9 9 11 10 9 8 9 8 9 9 9 9 9 9 10 8 9 10 9 9 9 9 8 7 5 4 4 3 4 1 3 6 5 6 7 6 7 6 7 7 6 6 6 6 5 5 5 5 5 4 4 3 1 0 2 2 3 3 4 5 6 6 7 8 9 10 11 11 12 13 13 14 14 15 16 17 18 19 20 21
6 8 8 7 8 7 8 9 9 8 8 8 9 9 9 9 9 9 10 11 9 10 9 9 8 9 9 8 9 9 9 9 8 7 7 3 2 4 5 9 12 8 8 7 6 6 6 6 7 6 6 5 5 5 5 5 4 3 2 3 2 2 2 4 5 5 6 7 8 8 9 10 11 12 12 13 13 14 15 16 17 18 19 20 21
7 7 8 7 8 8 7 7 8 8 9 8 8 8 8 8 8 8 9 11 10 9 9 9 9 8 10 8 8 8 8 9 8 9 9 8 9 8 8 4 2 5 2 5 4 6 7 8 7 7 6 6 5 5 5 5 4 6 3 3 3 2 3 4 5 5 5 6 7 8 8 9 10 11 12 13 13 14 15 16 17 18 19 20 20
8 8 8 8 8 9 8 9 9 9 9 9 9 8 8 7 7 8 9 9 8 9 8 10 11 10 10 9 9 8 9 9 7 8 8 6 6 5 4 3 7 5 4 4 4 3 5 7 7 7 7 6 5 5 5 5 4 5 5 3 4 3 3 4 5 5 5 6 7 8 8 9 10 11 12 12 13 14 15 16 17 18 19 19 20
8 10 8 9 9 10 9 9 9 9 9 10 9 8 8 8 7 8 9 10 9 11 12 12 11 12 10 8 9 8 9 7 8 8 8 7 6 8 6 4 2 5 0 4 2 4 5 5 6 6 6 7 6 6 5 5 4 7 6 4 3 4 4 5 5 6 6 6 7 8 9 9 10 11 11 12 13 14 15 15 16 17 18 19 19
8 8 7 9 10 9 9 10 9 9 9 8 9 9 10 9 9 10 9 8 10 11 12 13 12 10 10 10 8 8 9 8 8 9 8 10 9 9 9 7 4 3 4 4 4 10 5 3 5 5 7 7 7 6 6 5 6 7 6 4 3 3 4 5 6 6 6 7 7 8 9 10 10 11 11 12 12 13 14 15 16 17 18 18 19
6 6 8 8 8 8 9 10 9 8 9 9 9 9 9 9 8 8 10 9 11 12 10 11 14 15 12 11 10 12 12 11 11 10 9 10 9 7 9 10 11 5 3 6 6 8 4 5 1 5 6 7 6 6 7 7 5 8 6 4 4 3 4 5 6 6 7 7 8 9 10 10 11 11 11 11 12 13 14 15 15 16 16 17 18
7 7 7 7 7 8 8 8 9 9 8 9 8 8 7 7 6 6 8 6 6 7 8 9 10 9 10 13 12 9 7 6 7 8 9 8 9 9 11 12 10 9 8 9 10 9 6 6 7 8 7 6 7 5 7 6 7 6 3 3 4 3 3 5 6 6 7 7 8 9 9 10 11 11 11 11 12 13 13 14 15 15 16 16 17
7 6 6 6 6 7 7 8 8 8 9 8 8 8 7 8 10 10 10 9 9 9 8 8 8 9 10 9 8 8 8 8 10 9 9 10 9 10 9 9 8 11 9 10 9 8 6 6 4 6 6 7 5 6 5 6 8 7 4 4 3 3 5 5 5 5 6 7 7 9 9 10 11 11 11 12 12 13 13 14 14 15 15 15 17
5 6 6 6 7 7 8 8 8 9 9 9 9 8 7 7 6 7 7 7 8 10 9 10 12 9 7 10 8 8 6 8 7 7 8 9 10 9 10 10 10 12 10 8 7 3 6 8 7 3 8 8 6 6 4 5 7 6 4 3 4 6 6 4 4 5 5 6 8 9 10 10 11 11 12 12 12 12 13 13 14 14 14 15 16
5 6 6 7 7 7 7 8 8 8 9 9 9 10 8 7 6 5 5 6 7 7 7 5 4 5 5 4 5 6 7 6 8 9 6 4 5 8 9 8 8 7 6 6 9 5 3 5 7 5 6 8 6 7 5 4 4 6 4 3 4 6 4 3 4 5 5 6 7 8 9 10 11 10 11 12 12 12 13 13 13 13 13 14 15
5 5 6 7 7 7 8 8 8 8 8 8 7 6 8 8 7 7 6 5 7 8 8 8 6 6 8 8 9 9 6 8 5 3 5 7 6 6 5 4 5 4 5 5 6 4 1 1 3 4 5 7 5 5 7 5 4 3 3 3 4 4 3 3 2 3 4 5 6 7 8 9 10 9 10 11 12 12 12 12 13 12 12 13 14
3 6 6 6 5 6 6 7 7 8 7 8 9 9 7 6 6 5 5 5 6 6 4 5 4 5 6 8 7 7 6 6 6 7 8 7 7 7 5 6 6 5 5 7 7 7 7 1 3 1 5 5 7 4 8 7 5 4 3 3 3 4 3 3 3 1 3 3 4 5 7 9 9 8 9 11 11 12 12 12 12 12 12 13 14
2 3 4 4 5 5 4 5 5 5 5 4 3 3 4 5 6 6 6 6 7 8 7 8 9 7 6 7 8 5 5 7 7 7 5 6 5 6 5 4 6 8 8 8 7 7 8 7 5 6 7 6 6 6 5 5 5 5 5 3 3 3 2 3 3 1 1 2 4 4 5 8 8 8 9 10 11 11 11 12 12 11 12 12 14
1 1 1 2 2 2 3 3 4 4 4 4 4 4 5 4 5 7 6 6 7 8 8 8 7 6 8 7 7 6 6 8 6 6 5 3 5 6 6 6 6 7 7 5 7 8 8 9 6 9 7 8 3 3 4 4 5 3 4 4 2 3 2 3 3 2 0 2 2 2 5 7 7 8 9 10 10 11 11 11 11 11 11 12 14
1 1 0 1 0 0 2 3 3 3 3 3 3 3 3 3 3 4 4 4 5 5 6 7 6 7 7 8 7 5 6 7 6 6 6 6 5 7 6 6 7 7 5 6 6 4 7 9 7 3 4 3 2 4 6 7 3 3 2 3 3 2 2 3 3 2 2 2 2 1 3 6 7 7 8 9 10 10 10 10 10 10 11 12 14
0 1 1 1 0 1 1 3 3 3 3 3 2 3 3 3 3 4 4 4 5 5 5 4 4 5 7 8 7 8 9 10 9 8 8 9 7 7 9 7 7 5 7 6 4 5 6 7 8 5 2 5 3 2 3 4 6 4 2 2 1 1 2 3 3 2 2 2 2 1 1 4 6 7 8 9 10 10 10 10 10 10 11 12 14
1 0 0 0 0 1 1 1 2 2 2 1 2 3 3 3 4 4 4 4 5 4 4 4 4 4 5 4 3 4 6 8 8 9 8 6 6 6 6 5 6 6 6 6 5 5 5 5 2 2 5 1 3 4 1 1 2 3 6 4 4 3 2 4 4 2 1 2 3 3 2 3 5 4 6 7 9 10 10 10 11 11 11 13 13
0 0 1 2 1 0 0 1 1 1 1 1 3 3 3 3 3 4 4 4 4 4 4 4 4 4 4 3 3 4 5 4 2 2 5 8 6 8 6 6 7 7 7 6 5 5 4 4 4 6 3 4 2 2 2 3 3 2 5 7 8 6 6 3 3 2 1 2 4 2 2 3 3 4 4 4 7 9 10 10 11 12 13 13 13
1 2 2 2 2 1 0 0 0 0 1 2 1 1 2 3 2 3 3 3 4 4 4 4 3 3 3 4 4 4 5 7 9 9 9 8 9 9 8 8 8 8 7 6 7 6 5 7 5 4 6 6 7 7 6 7 11 11 5 5 5 3 1 1 3 2 3 3 2 2 3 3 3 4 2 2 3 4 6 9 9 12 13 13 13
1 1 1 1 1 1 1 1 1 1 1 2 3 3 3 3 3 3 3 4 4 4 4 5 4 4 4 4 4 8 9 10 11 12 12 13 13 11 9 10 10 9 10 10 9 9 9 9 9 8 8 9 9 10 10 10 5 4 5 6 7 3 1 2 3 4 3 3 3 4 4 2 3 3 3 2 3 2 2 4 5 8 11 13 13
1 1 1 1 1 0 1 1 0 0 0 1 2 2 4 5 4 4 5 5 4 4 4 5 6 5 5 5 4 5 7 7 8 10 11 13 14 13 11 13 13 14 12 11 11 10 10 10 7 7 9 10 10 9 10 7 6 8 7 6 5 4 5 3 6 2 3 5 2 1 5 2 2 3 2 2 4 3 3 4 9 11 11 12 12
3 2 2 2 1 1 1 0 1 1 1 3 3 4 5 6 7 5 4 4 4 4 4 5 5 5 5 4 3 3 4 5 4 5 8 12 12 12 11 13 14 13 10 11 10 8 7 7 7 9 8 10 9 8 8 7 8 6 5 6 6 6 6 5 4 4 1 5 3 0 7 2 2 3 3 3 2 3 3 6 9 10 11 11 11
3 4 3 2 2 2 2 2 1 1 1 2 3 4 5 6 7 6 3 4 5 4 4 5 5 4 4 4 4 4 3 5 5 6 6 6 9 11 11 12 14 14 11 10 4 5 7 8 9 9 11 8 6 9 9 8 6 7 5 5 5 5 5 5 6 3 2 3 3 1 5 4 3 3 4 2 3 2 3 5 8 9 9 9 10
4 4 3 3 3 3 3 2 1 0 1 2 2 3 4 5 5 4 2 3 3 4 5 4 3 4 5 6 5 4 3 4 5 5 4 5 6 6 6 5 6 8 10 10 8 7 8 8 7 10 8 4 8 5 4 6 9 9 8 8 5 6 7 7 1 2 2 4 4 2 4 4 2 1 5 2 3 3 3 6 7 7 7 7 8
4 5 4 4 3 2 1 1 2 1 1 2 3 4 4 4 4 3 2 2 2 3 3 3 4 5 5 4 3 4 3 4 5 5 6 6 5 6 5 5 6 5 5 6 6 4 4 4 4 5 2 4 3 1 5 6 8 5 7 6 8 6 2 2 1 1 2 4 4 4 6 3 0 1 6 3 2 3 3 5 6 5 6 6 7
2 2 1 1 2 2 1 1 2 1 1 2 3 3 4 4 5 3 2 2 2 3 3 2 2 2 1 2 2 3 3 5 4 7 7 5 5 6 6 5 3 3 4 3 2 2 3 3 2 2 1 2 3 4 6 7 5 6 7 6 5 4 4 1 6 1 4 3 7 7 3 4 1 3 4 1 2 3 3 3 7 4 4 5 5
4 4 4 3 2 2 2 2 2 2 2 3 3 3 3 4 4 2 1 1 1 2 3 2 2 1 1 2 2 3 3 4 5 8 8 5 3 4 5 4 3 3 7 3 3 4 3 2 2 3 3 5 7 8 10 11 8 8 7 6 5 6 5 6 6 3 6 4 5 7 2 6 3 5 5 3 3 4 4 5 4 4 3 3 4
5 5 3 2 2 2 2 2 3 3 2 3 3 3 3 4 5 4 3 2 1 2 3 2 1 2 3 5 5 4 5 6 7 9 8 6 4 5 4 5 5 6 7 3 1 2 3 4 4 4 5 6 7 10 11 12 13 10 10 10 7 7 7 7 8 4 3 3 5 6 3 6 0 2 2 5 3 5 5 4 5 4 2 2 5
5 4 3 3 2 2 2 2 3 3 2 3 3 4 5 5 5 4 4 4 4 4 3 3 3 3 3 4 8 8 7 6 9 10 11 8 6 6 6 4 6 8 8 1 3 3 2 2 2 2 2 5 5 5 7 13 14 11 8 5 7 9 9 7 6 1 3 5 7 9 6 3 4 3 4 3 4 4 3 2 3 2 2 1 1
Wind_Direction
190 197 182 197 199 192 192 208 205 213 184 211 206 215 226 224 228 236 239 248 242 259 251 268 266 269 245 257 254 247 256 102 144 136 142 150 141 94 83 69 58 54 34 24 74 104 125 116 107 112 105 102 99 96 92 88 83 79 75 71 67 63 60 56 52 49 46 42 39 36 33 31 29 26 25 22 21 20 20 15 16 13 10 8 7
193 194 181 202 203 202 201 211 207 213 190 209 210 205 218 217 228 242 240 241 239 243 229 243 251 246 221 237 247 213 218 133 154 148 151 134 138 104 64 69 68 67 58 70 139 152 134 121 120 113 110 107 103 100 95 90 85 78 74 70 66 62 59 55 51 48 46 42 39 35 33 31 28 27 23 20 19 19 18 14 13 11 9 8 7
190 188 195 194 199 201 211 207 209 214 201 214 203 203 209 212 214 221 220 221 232 238 202 223 244 265 253 231 245 238 230 176 142 137 137 152 144 126 77 68 70 72 86 108 159 164 135 130 125 118 118 113 109 102 97 91 85 79 74 71 66 64 59 54 51 48 45 43 39 35 32 30 28 25 22 20 19 17 15 13 11 10 8 8 8
191 193 193 194 196 198 204 196 208 203 200 208 207 213 210 220 219 215 219 208 220 217 221 214 254 264 277 263 238 217 197 170 150 144 146 151 154 136 104 86 76 75 45 94 171 158 134 130 124 124 120 119 111 104 99 93 87 80 75 71 66 62 58 54 49 47 45 42 39 34 31 30 27 24 22 20 18 16 15 11 10 9 9 9 8
200 197 198 198 198 198 201 208 209 200 199 210 213 214 219 240 240 219 218 223 252 269 207 207 250 267 266 265 233 213 189 171 157 143 153 158 157 147 123 113 103 84 53 351 321 150 136 116 125 115 118 117 108 101 98 94 88 82 75 68 63 59 57 54 50 47 44 41 37 33 31 28 25 23 22 18 16 15 12 11 10 9 9 8 8
194 205 199 200 201 201 203 213 216 207 199 204 212 210 209 209 224 191 221 214 233 245 265 286 276 280 274 263 236 205 174 177 176 165 155 160 158 151 136 126 121 110 61 9 356 71 114 112 117 104 103 103 102 98 94 92 89 82 74 69 63 58 55 51 49 45 43 40 36 32 30 26 25 22 19 17 15 13 12 11 9 8 9 8 8
200 197 202 202 202 205 207 215 208 201 199 204 204 214 208 212 202 200 227 238 245 266 250 246 260 275 262 237 231 201 175 188 172 155 159 156 153 153 146 138 139 120 86 46 21 56 101 120 111 105 101 100 99 96 91 88 86 82 75 68 62 58 53 50 46 45 42 38 34 32 28 25 23 20 18 16 15 12 12 10 8 9 9 8 8
201 196 198 203 205 205 211 213 209 197 205 206 204 211 213 219 218 196 212 244 245 264 243 250 257 263 258 225 230 176 186 195 175 158 157 150 157 156 152 147 145 137 115 79 66 63 65 84 101 94 90 87 88 91 92 87 82 79 75 69 63 57 53 49 46 44 41 36 33 30 27 25 21 18 18 15 14 10 10 9 9 9 9 9 7
202 198 199 204 210 210 213 211 205 199 205 208 207 212 201 210 223 215 196 215 217 239 255 240 249 246 250 234 221 176 191 189 185 164 142 157 160 156 151 157 151 142 122 101 89 79 75 70 65 61 64 78 80 79 82 85 81 77 70 66 63 57 53 50 47 44 40 35 32 29 27 23 21 17 16 15 11 8 9 9 10 9 9 8 5
206 198 204 210 209 210 212 211 202 202 208 208 214 209 209 200 218 218 201 202 218 223 237 231 232 235 235 223 222 184 216 191 188 155 154 158 164 167 170 159 150 148 131 119 110 96 85 79 71 61 62 71 75 76 75 72 72 71 68 63 59 58 53 52 50 45 39 34 31 29 26 21 21 17 15 13 8 8 9 10 10 9 7 5 4
211 200 202 208 210 211 211 210 201 203 205 210 215 212 212 213 212 224 212 209 209 213 212 199 213 223 232 239 264 246 235 228 167 161 167 169 169 168 150 164 149 147 143 136 128 118 108 98 89 74 64 68 67 67 67 65 61 57 60 59 56 57 55 52 50 45 38 31 31 30 24 21 19 15 12 9 8 7 9 9 9 7 6 5 4
209 206 204 207 209 211 209 206 201 197 203 205 213 207 208 211 222 216 219 238 240 231 192 164 186 229 266 288 292 281 244 220 195 175 173 169 162 150 165 162 148 152 155 153 140 138 129 120 100 90 77 71 68 62 59 56 58 57 50 53 53 53 56 53 51 45 38 31 32 30 23 20 18 12 10 8 7 8 8 9 8 7 6 4 4
211 208 209 209 214 215 214 213 202 201 204 211 208 209 209 205 210 206 213 228 245 219 217 164 156 277 328 306 314 297 261 206 238 191 171 170 149 155 151 153 160 156 172 156 149 146 146 131 117 100 86 76 61 60 57 46 48 57 50 42 45 49 54 54 51 47 38 33 30 31 24 18 15 10 8 7 7 7 8 8 7 6 5 4 3
213 214 214 211 213 215 216 217 208 210 214 217 215 212 208 209 198 222 222 211 228 198 196 134 212 210 240 293 312 322 319 242 230 231 164 158 166 155 161 164 168 170 159 158 161 156 155 147 125 114 111 101 88 70 54 46 35 45 47 33 36 45 53 54 52 46 40 32 29 31 21 17 11 8 7 6 7 7 8 8 6 5 4 3 3
213 215 216 216 217 216 219 217 215 210 214 223 218 218 210 207 199 202 220 247 236 220 184 190 199 137 116 69 293 279 314 309 325 217 171 198 164 163 169 167 172 170 165 164 170 169 163 152 137 127 138 118 106 82 65 54 46 43 36 21 23 34 46 53 50 44 43 31 30 26 21 13 9 7 6 6 6 7 7 7 6 4 3 2 1
212 211 216 217 215 218 218 218 220 210 213 219 218 222 211 212 206 209 191 215 216 238 205 204 159 127 267 214 235 121 309 255 203 248 137 205 208 182 169 173 162 147 151 174 182 172 169 159 149 144 151 140 126 100 83 63 46 33 17 349 17 26 33 50 44 43 37 33 26 23 19 13 7 7 5 5 7 6 7 5 5 4 1 0 1
211 212 212 217 215 216 216 217 218 216 212 221 222 220 214 211 205 202 200 210 221 221 225 208 211 195 153 84 8 356 228 260 159 260 98 188 251 224 194 161 165 169 170 178 167 172 161 165 155 144 157 143 125 107 90 71 53 27 2 329 15 28 31 37 43 36 36 30 22 18 15 10 8 6 5 6 6 6 5 3 3 3 0 359 1
213 213 214 214 216 214 215 216 218 218 214 222 227 222 217 212 208 204 209 211 206 193 237 236 219 227 210 182 158 180 203 256 128 261 19 186 325 329 272 217 170 170 174 163 171 169 163 164 159 158 163 140 134 115 101 84 65 23 344 307 46 33 45 36 33 35 30 27 20 15 10 9 6 5 6 5 5 3 4 2 2 1 359 359 359
217 213 214 213 217 217 215 217 220 220 218 222 227 224 219 215 202 204 212 203 187 210 208 210 213 250 239 245 250 116 144 127 208 71 287 287 59 191 268 294 212 178 182 191 178 163 180 160 163 161 157 146 142 131 109 86 66 37 4 23 40 44 50 52 37 30 26 24 20 14 11 7 6 6 5 6 5 1 1 0 359 359 357 359 360
220 218 216 214 214 220 217 220 221 223 216 221 227 227 223 216 205 210 212 202 201 213 211 191 194 218 199 231 245 207 165 120 150 172 169 178 241 265 351 99 277 249 214 193 191 183 174 177 162 160 153 157 152 138 126 109 84 39 335 7 44 51 53 54 46 38 29 22 18 12 9 6 5 5 4 5 4 359 359 359 358 357 358 358 359
222 220 217 217 214 219 218 221 223 225 216 226 227 223 221 217 210 207 210 212 207 213 206 202 200 214 182 224 223 231 212 207 163 131 153 163 246 193 223 1 150 246 238 223 212 192 182 178 175 165 160 162 161 148 142 124 111 56 346 38 25 41 46 54 47 44 34 24 20 13 8 6 4 6 3 1 1 357 357 358 357 357 356 357 358
226 225 223 219 220 219 222 224 225 224 218 226 225 224 223 221 217 215 215 219 211 206 209 206 204 210 199 197 199 211 213 209 181 159 160 191 188 202 203 188 205 233 199 207 207 206 189 173 170 173 167 164 165 155 151 145 152 160 244 74 49 26 37 43 48 42 37 28 22 13 7 5 5 5 2 359 357 358 355 358 357 357 355 356 356
228 232 230 226 228 224 223 229 229 224 222 226 228 226 223 221 219 215 216 218 213 208 215 219 209 210 206 198 203 196 202 205 205 189 188 178 158 209 203 200 203 205 215 196 199 204 190 182 177 179 173 169 167 158 156 160 172 175 151 114 95 64 30 40 44 42 35 27 21 11 7 3 5 5 0 358 356 356 356 355 356 356 354 354 355
225 232 235 229 235 236 231 230 231 227 227 227 231 229 229 223 219 215 217 216 217 215 219 223 219 218 216 208 208 209 207 210 202 189 191 201 197 210 200 188 260 238 279 183 200 188 192 192 190 177 174 166 174 167 161 156 181 176 134 117 99 63 41 28 42 38 34 26 17 9 5 1 4 4 359 358 356 354 354 355 353 354 353 353 353
221 227 229 223 227 234 231 229 230 229 232 230 232 230 229 226 221 219 218 219 225 225 223 222 214 211 216 213 213 208 208 211 189 187 199 188 180 191 236 170 201 210 220 161 209 218 203 202 184 182 168 170 169 165 163 161 178 182 155 125 101 74 41 23 29 29 28 20 14 7 1 358 1 3 359 356 353 353 353 353 352 352 353 353 351
222 225 220 219 223 225 226 229 230 230 231 233 231 227 226 226 221 221 220 223 221 220 221 220 216 217 216 216 207 206 217 202 196 182 183 165 185 194 192 213 220 221 269 192 204 162 240 210 197 177 173 169 168 163 163 170 183 193 157 140 100 69 45 29 23 25 19 11 10 4 357 356 358 359 358 354 352 351 351 351 351 351 351 350 350
221 225 215 216 220 221 221 226 227 227 227 229 229 225 218 219 221 224 227 230 225 219 218 216 217 216 216 212 212 213 214 201 191 194 184 193 190 191 171 192 233 209 217 224 219 218 187 185 172 190 188 172 168 166 167 168 188 192 161 134 128 77 45 28 24 25 15 6 1 360 355 353 357 355 355 352 349 348 349 348 348 349 348 348 347
223 216 220 215 216 215 215 221 223 224 222 223 223 222 217 218 225 237 241 226 216 214 220 219 223 217 210 211 212 218 214 204 196 192 187 195 199 186 187 192 183 215 232 231 222 237 164 165 226 211 190 181 178 167 169 168 183 194 160 138 128 106 52 34 27 24 14 4 357 355 352 352 355 352 351 348 346 344 345 345 345 346 346 346 345
225 216 221 214 214 210 213 216 217 217 218 218 219 217 212 213 219 232 243 236 238 232 225 225 227 210 213 215 217 221 215 204 197 200 198 194 199 190 189 186 178 190 196 218 223 207 214 192 175 215 188 190 174 174 159 175 188 182 169 147 138 121 73 45 26 23 7 2 357 354 351 352 352 348 346 345 342 339 340 340 343 344 344 343 343
217 222 216 216 214 213 214 217 218 217 219 220 217 218 215 219 224 231 235 231 231 236 235 230 227 223 225 216 205 204 203 193 209 209 194 198 198 195 190 200 187 203 202 204 229 184 188 205 193 179 190 193 176 170 168 177 192 173 174 156 129 120 76 59 36 17 4 357 354 353 349 351 351 345 341 339 336 336 336 338 339 341 341 342 340
214 218 217 216 215 215 214 219 218 219 220 221 220 224 225 233 234 234 227 226 231 232 228 216 221 213 199 207 204 209 185 199 208 216 215 200 201 190 196 192 196 212 205 199 225 243 159 189 221 225 179 184 176 164 170 178 181 168 169 142 126 106 90 73 57 29 9 356 353 351 346 347 345 341 335 332 331 332 334 334 336 339 339 339 338
212 211 211 216 216 218 219 220 220 220 219 219 215 221 224 236 245 247 227 208 215 234 247 251 236 218 202 201 194 203 205 204 213 217 207 198 187 200 205 196 204 220 209 185 211 210 201 180 194 195 178 167 168 162 169 172 175 163 160 129 117 99 93 89 65 43 24 1 350 346 340 342 340 335 331 327 326 328 330 332 334 336 336 337 336
204 204 207 213 214 215 216 217 216 218 219 220 213 219 229 229 222 222 236 236 234 232 218 220 209 199 202 207 207 211 195 204 197 155 177 196 194 209 207 187 196 196 184 189 203 243 289 123 142 192 173 146 174 179 157 161 154 171 136 120 101 100 99 97 90 50 40 7 346 335 334 337 334 331 327 326 323 325 326 328 331 334 333 334 332
192 200 204 210 212 214 217 221 220 223 224 219 219 220 219 225 234 233 238 235 237 237 243 268 260 236 211 211 214 209 189 190 169 190 192 184 183 185 186 182 188 188 206 183 215 190 208 188 157 97 164 179 170 189 167 165 174 170 132 115 87 101 109 107 108 39 38 2 331 322 330 333 328 324 324 322 324 325 326 329 331 331 330 330 329
239 204 201 201 207 205 218 236 241 238 239 254 275 239 232 228 240 243 226 224 228 234 224 222 219 214 216 215 219 188 169 185 193 194 177 186 173 182 195 186 197 207 199 201 170 200 181 211 170 163 181 183 177 185 189 171 166 165 136 103 115 114 112 134 133 181 17 335 303 308 323 326 321 320 320 320 326 326 324 331 327 328 327 326 325
203 264 206 195 188 193 209 233 242 242 254 252 254 237 236 238 245 247 240 227 228 230 226 227 219 200 212 214 219 193 183 192 191 187 191 176 187 197 197 196 210 210 205 201 209 180 188 171 201 182 182 164 181 156 145 144 146 127 126 131 119 110 136 145 148 166 274 288 278 288 318 315 314 317 317 318 326 328 328 327 323 323 323 321 322
189 159 18 33 91 325 235 248 261 266 263 262 263 271 273 269 265 269 265 257 252 247 239 231 214 205 209 214 214 188 190 197 190 181 172 189 192 182 193 195 202 205 202 209 214 179 163 187 176 176 150 144 139 150 168 144 121 102 88 120 145 151 171 178 174 176 195 236 191 219 327 309 310 315 313 315 326 327 328 327 322 318 318 317 319
48 40 72 62 119 259 247 242 237 236 234 238 243 258 273 272 258 258 256 248 242 239 243 242 228 218 217 220 216 192 191 197 197 188 182 195 185 195 201 196 195 182 200 211 207 206 187 191 165 143 177 165 146 136 208 160 146 134 134 152 144 184 182 230 226 186 184 179 156 146 327 311 309 306 309 312 323 325 325 324 318 317 316 315 317
93 130 164 145 162 181 214 205 235 247 278 272 252 258 259 254 243 243 245 238 237 234 231 221 215 211 219 225 212 191 205 210 200 192 183 176 185 202 199 188 183 188 198 205 193 199 192 153 112 133 143 198 147 165 139 140 126 168 179 171 233 205 203 194 254 277 175 214 201 191 211 246 269 286 292 305 320 320 323 324 319 319 317 312 315
84 41 328 320 307 163 256 278 319 346 304 275 250 248 246 246 240 244 241 239 240 242 235 229 219 217 214 206 186 184 199 220 236 176 169 192 184 198 195 178 182 186 196 191 191 194 181 165 156 161 173 159 132 78 107 128 140 277 213 190 212 211 218 204 207 223 287 167 238 240 228 262 288 299 301 314 316 315 323 326 318 313 311 308 312
163 185 186 190 194 221 303 70 316 206 209 245 290 296 286 279 236 243 239 233 231 235 237 227 218 210 206 199 192 188 189 194 196 198 199 189 180 195 194 182 182 187 188 182 188 184 185 168 145 136 161 177 189 162 171 189 201 206 173 172 217 212 156 317 293 219 210 221 234 241 254 193 230 248 230 257 271 302 312 317 310 306 304 307 312
109 118 118 69 51 17 346 342 334 341 352 6 348 321 266 245 229 233 233 228 221 224 224 226 225 214 210 195 195 190 193 198 199 198 197 198 203 204 188 182 184 186 186 185 189 191 182 183 191 171 182 204 194 195 195 211 179 100 147 174 200 182 104 262 278 236 194 185 216 268 263 219 206 242 199 225 249 278 275 297 278 287 297 305 308
106 96 113 124 127 128 159 205 270 27 240 211 246 241 232 228 218 210 213 220 206 211 218 222 229 222 216 204 197 195 196 201 206 205 205 208 209 211 199 194 191 186 183 191 198 184 186 198 186 184 200 205 208 198 207 185 173 184 185 183 180 145 187 208 255 315 184 163 183 223 275 197 178 238 226 211 238 242 264 265 284 296 300 303 305
143 128 114 148 156 151 146 128 189 220 244 247 247 237 225 220 207 207 202 206 200 210 215 218 226 216 210 197 194 195 208 209 198 206 217 215 211 205 197 197 204 209 206 189 184 183 194 187 187 208 197 213 205 189 200 171 191 180 185 175 183 182 188 205 213 219 252 155 168 226 279 235 177 226 240 229 203 205 257 280 289 295 301 302 306
142 137 164 148 159 176 164 181 222 234 225 256 252 241 239 230 216 199 196 193 191 207 211 216 214 202 181 191 208 212 219 202 196 208 207 213 211 207 205 204 211 214 216 228 246 213 185 193 197 206 205 203 197 213 198 187 151 176 162 186 192 193 198 211 218 172 182 141 102 204 269 258 147 220 243 219 185 216 272 292 288 294 298 304 306
156 157 164 173 189 187 184 182 210 218 228 283 268 266 263 251 232 199 199 190 202 205 209 207 201 195 195 202 209 216 201 198 208 206 202 198 202 206 213 214 218 225 228 227 221 206 192 201 196 215 223 179 213 213 174 147 159 182 176 201 178 195 205 218 109 152 129 150 162 152 286 258 189 199 250 235 172 236 240 256 266 290 297 301 310
170 180 181 188 204 178 163 170 178 200 211 242 230 245 255 250 232 180 160 179 203 224 231 215 208 208 211 213 214 217 199 211 211 201 196 199 196 208 211 222 220 223 227 223 216 209 205 219 228 250 245 208 232 111 154 173 183 175 178 183 183 186 149 53 5 192 226 190 166 164 242 283 283 229 254 212 213 242 227 249 243 282 295 303 312
186 148 197 171 177 175 171 163 174 206 266 241 225 232 238 226 199 155 167 192 227 242 253 262 265 264 246 217 226 237 220 223 218 205 204 182 193 205 218 231 248 266 252 252 262 219 204 212 239 258 238 201 174 167 169 169 136 117 96 81 88 102 115 165 246 231 226 229 181 191 239 264 187 203 262 203 215 248 221 186 220 260 291 303 315
174 189 189 187 166 143 157 194 194 208 230 242 226 221 214 216 157 137 170 198 245 275 281 284 287 322 309 245 234 243 237 240 217 211 205 173 197 210 223 234 253 275 259 278 265 244 223 186 202 209 184 187 181 172 168 162 148 135 119 119 175 150 156 217 246 218 248 171 203 188 183 274 208 195 267 265 224 244 225 190 192 224 290 302 321
188 194 180 167 151 143 162 203 218 205 230 243 228 216 198 192 159 166 163 161 231 256 270 283 276 236 231 221 216 223 228 234 211 211 204 177 205 209 209 226 248 257 263 233 237 267 234 212 207 203 191 189 181 177 173 168 160 154 154 198 176 154 201 203 230 217 269 216 202 162 157 237 166 188 231 276 298 249 223 205 178 210 247 333 321
178 164 163 169 160 138 165 210 229 226 241 248 230 217 201 199 170 156 164 169 200 228 225 242 215 219 224 222 218 218 222 223 209 209 206 188 211 204 205 203 236 246 252 168 213 225 228 214 234 189 204 189 186 178 191 184 179 179 193 177 147 177 198 204 206 94 301 251 194 171 189 253 140 243 133 331 302 266 192 173 201 203 199 168 248